Location: Kimberly
(42.5380°N, 114.3640°W)
Time: 16:39:03
(UTC-06:00)

Envisat - Visible Passes

Search period start: 07 October 2022 00:00
Search period end: 17 October 2022 00:00
Orbit: 764 x 765 km, 98.2° (Epoch: 06 October)

Date Brightness Start Highest point End Pass type
(mag) Time Alt. Az. Time Alt. Az. Time Alt. Az.
07 Oct 4.0 05:32:42 10° NNE 05:37:36 46° E 05:42:26 10° S visible
07 Oct 4.1 07:12:23 10° NNW 07:16:17 23° WNW 07:20:10 10° WSW visible
08 Oct 5.3 04:56:34 10° NE 05:00:22 21° E 05:04:10 10° SE visible
08 Oct 3.2 06:34:45 10° N 06:39:37 47° WNW 06:44:26 10° SW visible
09 Oct 3.0 05:57:38 10° NNE 06:02:44 80° ESE 06:07:48 10° S visible
10 Oct 4.4 05:21:00 10° NNE 05:25:40 36° E 05:30:18 10° SSE visible
10 Oct 3.9 07:00:14 10° N 07:04:32 28° WNW 07:08:48 10° SW visible
11 Oct 5.6 04:45:13 10° NE 04:48:23 16° E 04:51:32 10° SE visible
11 Oct 3.0 06:22:47 10° N 06:27:47 60° WNW 06:32:45 10° SSW visible
12 Oct 3.4 05:45:48 10° NNE 05:50:51 62° E 05:55:52 10° S visible
13 Oct 4.9 05:09:21 10° NE 05:13:43 28° E 05:18:03 10° SSE visible
13 Oct 3.6 06:48:09 10° N 06:52:44 35° WNW 06:57:19 10° SW visible
14 Oct 5.9 04:34:12 10° ENE 04:36:22 13° E 04:38:32 10° ESE visible
14 Oct 2.9 06:10:51 10° N 06:15:56 77° WNW 06:20:59 10° SSW visible
15 Oct 3.9 05:34:01 10° NNE 05:38:56 48° E 05:43:49 10° S visible
15 Oct 4.2 07:13:47 10° NNW 07:17:36 22° WNW 07:21:24 10° WSW visible
16 Oct 5.2 04:57:49 10° NE 05:01:44 22° E 05:05:38 10° SE visible
16 Oct 3.3 06:36:07 10° N 06:40:56 45° WNW 06:45:44 10° SW visible
